Regional Weather Roundup
Issued by NWS

Home | Current Version | Previous Version | Text Only | Print | Product List | Glossary On
Versions: 1 2 3 4 5 6 7 8 9 10 11 12 13 14 15 16 17 18 19 20 21 22 23 24 25 26 27 28 29 30 31 32 33 34 35 36 37 38 39 40 41 42 43 44 45 46 47 48 49 50
000
ASUS44 KFWD 292110
RWRTX
NORTH TEXAS HOURLY WEATHER ROUNDUP
NATIONAL WEATHER SERVICE FORT WORTH TX
400 PM CDT SAT AUG 29 2015

NOTE: "FAIR" INDICATES FEW OR NO CLOUDS BELOW 12,000 FEET WITH NO
SIGNIFICANT WEATHER AND/OR OBSTRUCTIONS TO VISIBILITY.

TXZ118-119-292200-
DALLAS/FORT WORTH METROPLEX

CITY           SKY/WX    TMP DP  RH WIND       PRES   REMARKS
DFW AIRPORT    PTSUNNY   94  63  35 S14       29.94F HX  95
DALLAS LOVE    PTSUNNY   94  61  33 S14       29.95F HX  94
FTW MEACHAM    FAIR     100  60  26 S10       29.93F HX 100
DAL-EXECUTIVE  FAIR      92  62  36 VRB7      29.95F HX  92
FTW-ALLIANCE   PTSUNNY  100  60  26 S8        29.93F HX 100
FTW-NAS-JRB    PTSUNNY   99  60  27 S12       29.94F HX  99
FTW-SPINKS     SUNNY     97  61  30 SE12      29.96F HX  97
ARLINGTON      FAIR      96  59  29 S12G22    29.95F HX  95
GRAND PRAIRIE  SUNNY     93  64  38 SE12G21   29.96F HX  95
ADDISON        PTSUNNY   95  61  31 S12G18    29.97F HX  95
MESQUITE       SUNNY     91  63  38 S9        29.96F HX  92
LANCASTER      FAIR      92  61  35 SE12      29.97F HX  92
$$

TXZ091>094-102>105-117-120-121-131>134-292200-
NORTH CENTRAL TEXAS

CITY           SKY/WX    TMP DP  RH WIND       PRES   REMARKS
SHRMAN/DENISON FAIR      95  65  37 S12G20    29.96F HX  98
GAINESVILLE    FAIR      96  63  34 SE16G23   29.95F HX  97
BOWIE          FAIR      96  57  27 SW3       29.94F HX  95
BRIDGEPORT     FAIR      98  64  31 W3        29.94F HX 100
DECATUR        FAIR      96  58  28 S9        29.95F HX  94
DENTON         FAIR      98  62  30 S13G20    29.92F HX  99
MCKINNEY       FAIR      94  62  34 S18       29.95F HX  94
GREENVILLE     FAIR      91  61  35 S8        29.97F HX  91
ROCKWALL       FAIR      92  66  42 S10       29.95F HX  94
TERRELL        FAIR      92  65  40 S10       29.97F HX  94
WAXAHACHIE     FAIR      92  64  39 S9        29.98F HX  93
CLEBURNE         N/A     95  61  31 SW10      29.97F HX  95
$$

TXZ083>090-098>101-113>116-127>130-139>142-154-155-292200-
WESTERN NORTH TEXAS

CITY           SKY/WX    TMP DP  RH WIND       PRES   REMARKS
WICHITA FALLS  FAIR      97  61  30 MISG      29.93F HX  97
WF-KICKAPOO    FAIR      96  56  25 CALM      29.95F HX  95
VERNON         FAIR      93  55  27 N3        29.98F HX  91
ABILENE        LGT RAIN  81  64  56 W10       30.08R
ABILENE-DYESS  LGT RAIN  84  59  42 W8        30.08R
BRECKENRIDGE   FAIR      94  55  27 W15       29.98F HAZE    HX  92
GRAHAM         FAIR      97  62  31 W13       29.94F HX  98
MINERAL WELLS  FAIR      93  64  38 SW10      29.94F HX  94
STEPHENVILLE   FAIR      91  60  35 SW6       30.02F HX  91
COMANCHE       FAIR      86  62  43 SW12      30.03F
COLEMAN        FAIR      85  63  47 W9        30.07F
BRADY          MOSUNNY   88  59  37 NW8       30.07S
$$

TXZ143>147-156>162-174-175-292200-
CENTRAL TEXAS

CITY           SKY/WX    TMP DP  RH WIND       PRES   REMARKS
WACO           FAIR      93  60  33 S10       29.98F HX  93
WACO-MCGREGOR  FAIR      93  62  35 SW3       29.98F HX  93
HILLSBORO      FAIR      92  60  33 SE7       29.97F HX  92
CORSICANA      FAIR      93  65  39 S12       29.98F HX  95
MEXIA          FAIR      94  65  38 SE15G24   29.97F HX  96
HEARNE         FAIR      91  63  39 CALM      29.99F HX  92
CAMERON        FAIR      94  64  36 S6        29.98F HX  95
TEMPLE         FAIR      93  61  33 E3        29.99F HX  93
KILLEEN        FAIR      93  58  31 VRB6      29.98F HX  92
KILLEEN-SKYLRK FAIR      93  61  33 E7        29.98F HX  93
FORT HOOD      FAIR      92  59  33 VRB5      29.98F HX  91
GATESVILLE     FAIR      93  59  31 W6        30.01F HX  92
HAMILTON       FAIR      89  56  32 NW7       30.03S
$$

TXZ095>097-106>112-122>126-135>138-148>153-164>167-292200-
EAST TEXAS

CITY           SKY/WX    TMP DP  RH WIND       PRES   REMARKS
PARIS          FAIR      91  64  40 S8        29.98S HX  93
SULPHUR SPRNGS FAIR      89  67  47 S10       30.00F HX  92
MOUNT PLEASANT FAIR      90  65  43 SW8       29.99F HX  92
GILMER         FAIR      89  68  48 S8        29.98F HX  93
MINEOLA        FAIR      90  66  45 S7        30.00S HX  92
TYLER          FAIR      90  68  48 S6        29.99F HX  94
LONGVIEW       FAIR      90  69  50 VRB5      29.98F HX  94
MARSHALL       FAIR      91  70  49 S7        30.01F HX  96
ATHENS         FAIR      90  66  45 S5        29.98F HX  92
JACKSONVILLE   FAIR      92  62  36 S6        30.02F HX  92
HENDERSON      FAIR      90  64  41 SE3       30.00F HX  92
CENTER         FAIR      92  64  38 S3        29.99F HX  93
NACOGDOCHES    FAIR      91  61  35 N3        29.99F HX  91
LUFKIN         FAIR      93  60  33 VRB3      29.98F HX  93
$$

SUPPLEMENTAL OBSERVATIONS (CENTRAL)

CITY           SKY/WX    TMP DP  RH WIND       PRES   REMARKS
CADDO GRASSLND   N/A    N/A N/A N/A S10         N/A
PAT MAYSE LAKE   N/A     90  64  43 SE9         N/A  HX  91
GREENVILLE       N/A     91  63  38 S9          N/A  HX  92
CEDAR HILL       N/A    N/A N/A N/A S10         N/A
MCGREGOR         N/A     97  59  28 SW5         N/A  HX  96
TEMPLE           N/A     93  59  31 SE7         N/A  HX  92
$$

SUPPLEMENTAL OBSERVATIONS (WEST)

CITY           SKY/WX    TMP DP  RH WIND       PRES   REMARKS
MILLERS CREEK    N/A     90  55  31 W20G30      N/A
POSSUM KINGDOM   N/A     99  59  26 W9G17       N/A  HX  98
LBJ GRASSLAND    N/A     99  63  30 S6G14       N/A  HX 100
GRANBURY         N/A     93  61  33 S12         N/A  HX  93
HAMBY            N/A     88  54  31 W16         N/A
IVIE RESERVOIR   N/A     82  63  51 NW6         N/A
COLORADO BEND    N/A     93  54  26 N3          N/A  HX  91
$$

SUPPLEMENTAL OBSERVATIONS (EAST)

CITY           SKY/WX    TMP DP  RH WIND       PRES   REMARKS
CLARKSVILLE      N/A     91  64  40 S9G17       N/A  HX  93
TEXARKANA        N/A     90  72  55 S2          N/A  HX  96
LINDEN           N/A     90  66  45 S3          N/A  HX  92
GILMER           N/A     91  66  43 SW6         N/A  HX  94
HENDERSON        N/A     91  64  40 SW7         N/A  HX  93
LUFKIN           N/A     95  59  30 MISG        N/A  HX  94
N SABINE NF      N/A     93  59  31 MISG        N/A  HX  92
S SABINE NF      N/A     93  55  27 E5          N/A  HX  91
$$

SUPPLEMENTAL OBSERVATIONS ARE A COLLECTION OF AUTOMATED INSTRUMENTS
THAT ARE MAINTAINED BY A VARIETY OF FEDERAL AND STATE AGENCIES.
CERTAIN ELEMENTS...SUCH AS HUMIDITY VALUES AND SUSTAINED WIND
SPEEDS...MAY BE APPROXIMATED.



USA.gov is the U.S. government's official web portal to all federal, state and local government web resources and services.